Home > Weather > Kalamaria > Past weeks

Flag for Greece Weather for the Past 2 Weeks in Kalamaria, Greece

Now
66 °F

Partly sunny.


Feels Like: 66 °F
Forecast: 49 / 72 °F
Wind: 9 mph from Northwest

Location: Thessaloniki Airport

Current Time: May 5, 2016 at 7:14:50 PM

Latest Report: May 5, 2016 at 6:50 PM


Visibility: N/A

Pressure: 29.89 "Hg

Humidity: 43%

Dew Point: 43 °F

Location of KalamariaLocation

Historic Weather in Kalamaria — Graph

°F

Kalamaria Temperature Yesterday

Maximum temperature yesterday: 68 °F (at 2:50 PM)
Minimum temperature yesterday: 57 °F (at 4:50 AM)
Average temperature yesterday: 62 °F

High & Low Weather Summary for the Past Weeks

 TemperatureHumidityPressure
High118 °F (Apr 30, 2:20 AM)100% (May 3, 3:50 AM)30.33 "Hg (May 3, 3:50 AM)
Low39 °F (Apr 27, 5:50 AM)12% (Apr 30, 2:20 AM)29.45 "Hg (Apr 25, 6:20 PM)
Average61 °F61%29.87 "Hg
* Reported Apr 20 5:20 PM — May 5 5:50 PM, Kalamaria, Weather by CustomWeather, © 2016

Note: Actual official high and low records may vary slightly from our data, if they occured in-between our weather recording intervals... More about our weather records

Advertising

Kalamaria Weather History for the Previous 24 Hours

Scroll right to see more
 ConditionsComfort  
Time TempWeatherWind HumidityBarometerVisibility
5:50 PM
Thu, May 5
70 °FScattered clouds.14 mph43%29.86 "HgN/A
5:20 PM72 °FScattered clouds.15 mph41%29.86 "HgN/A
4:50 PM72 °FScattered clouds.14 mph44%29.86 "HgN/A
4:20 PM72 °FScattered clouds.12 mph38%29.86 "HgN/A
3:50 PM72 °FScattered clouds.12 mph44%29.89 "HgN/A
3:20 PM72 °FScattered clouds.12 mph36%29.89 "HgN/A
2:50 PM72 °FScattered clouds.12 mph44%29.89 "HgN/A
2:20 PM70 °FScattered clouds.9 mph40%29.89 "HgN/A
1:50 PM68 °FScattered clouds.8 mph38%29.89 "HgN/A
1:20 PM68 °FScattered clouds.9 mph43%29.92 "HgN/A
12:50 PM68 °FScattered clouds.10 mph43%29.92 "HgN/A
12:20 PM66 °FScattered clouds.8 mph43%29.92 "HgN/A
11:50 AM64 °FScattered clouds.12 mph46%29.92 "HgN/A
11:20 AM64 °FScattered clouds.13 mph46%29.92 "HgN/A
10:50 AM64 °FScattered clouds.9 mph49%29.92 "HgN/A
10:20 AM63 °FScattered clouds.12 mph49%29.92 "HgN/A
9:50 AM63 °FScattered clouds.13 mph49%29.92 "HgN/A
9:20 AM59 °FScattered clouds.13 mph51%29.92 "HgN/A
8:50 AM59 °FScattered clouds.10 mph51%29.92 "HgN/A
8:20 AM57 °FScattered clouds.13 mph59%29.89 "HgN/A
7:50 AM57 °FScattered clouds.10 mph59%29.89 "HgN/A
7:20 AM57 °FPassing clouds.12 mph55%29.89 "HgN/A
6:50 AM54 °FPassing clouds.3 mph63%29.89 "HgN/A
6:20 AM54 °FPassing clouds.5 mph67%29.86 "HgN/A
5:50 AM54 °FPassing clouds.5 mph63%29.86 "HgN/A
5:20 AM55 °FPassing clouds.6 mph63%29.86 "HgN/A
4:50 AM55 °FPassing clouds.5 mph67%29.86 "HgN/A
4:20 AM55 °FPassing clouds.6 mph63%29.86 "HgN/A
3:50 AM55 °FPassing clouds.6 mph63%29.86 "HgN/A
3:20 AM57 °FPassing clouds.5 mph55%29.83 "HgN/A
2:50 AM59 °FPassing clouds.6 mph55%29.83 "HgN/A
2:20 AM59 °FPartly cloudy.7 mph59%29.83 "HgN/A
1:50 AM59 °FPassing clouds.8 mph55%29.83 "HgN/A
1:20 AM59 °FPartly cloudy.8 mph59%29.83 "HgN/A
12:50 AM61 °FPassing clouds.8 mph55%29.83 "HgN/A
11:50 PM
Wed, May 4
59 °FPassing clouds.5 mph63%29.83 "HgN/A
11:20 PM61 °FPassing clouds.10 mph59%29.83 "HgN/A
10:50 PM61 °FPassing clouds.8 mph59%29.80 "HgN/A
10:20 PM61 °FPassing clouds.5 mph59%29.80 "HgN/A
9:50 PM59 °FPassing clouds.3 mph68%29.80 "HgN/A
9:20 PM61 °FBroken clouds.9 mph59%29.77 "HgN/A
8:50 PM63 °FScattered clouds.9 mph64%29.77 "HgN/A
8:20 PM63 °FScattered clouds.13 mph68%29.74 "HgN/A
7:50 PM64 °FScattered clouds.10 mph64%29.74 "HgN/A
7:20 PM64 °FScattered clouds.12 mph68%29.74 "HgN/A
Weather by CustomWeather, © 2016

See weather overviewHow to use our weather pages